Regional Weather Roundup
Issued by NWS

Home | Current Version | Previous Version | Text Only | Print | Product List | Glossary Off
Versions: 1 2 3 4 5 6 7 8 9 10 11 12 13 14 15 16 17 18 19 20 21 22 23 24 25 26 27 28 29 30 31 32 33 34 35 36 37 38 39 40 41 42 43 44 45 46 47 48 49 50

470
ASUS45 KBOI 031810
RWRID

IDAHO REGIONAL WEATHER ROUNDUP
NATIONAL WEATHER SERVICE BOISE ID
1100 AM MST SAT DEC 03 2016

NOTE: "FAIR" INDICATES FEW OR NO CLOUDS BELOW 12000 FEET
WITH NO SIGNIFICANT WEATHER AND/OR OBSTRUCTIONS TO VISIBILITY

IDZ012-014-031900-
SOUTHWEST IDAHO


CITY           SKY/WX    TMP DP  RH WIND       PRES   REMARKS
BOISE          CLOUDY    38  27  64 CALM      30.29R
CALDWELL       MOSUNNY   37  26  64 CALM      30.31S
MOUNTAIN HOME  CLOUDY    37  26  62 CALM      30.28R
$$

IDZ016-017-031900-
SOUTHCENTRAL IDAHO


CITY           SKY/WX    TMP DP  RH WIND       PRES   REMARKS
BURLEY         CLOUDY    37  22  54 W15       30.24R WCI  28
JEROME         CLOUDY    35  23  61 SW15      30.26R WCI  25
TWIN FALLS     CLOUDY    38  22  52 W20       30.26R WCI  28
$$

IDZ019>023-031900-
SOUTHEAST IDAHO


CITY           SKY/WX    TMP DP  RH WIND       PRES   REMARKS
IDAHO FALLS    NOT AVBL
POCATELLO      CLOUDY    32  20  61 S14       30.26R WCI  22
REXBURG        CLOUDY    25  20  81 SW9       30.22R WCI  15
$$

IDZ006-010-011-018-031-032-031900-
CENTRAL IDAHO MOUNTAINS


CITY           SKY/WX    TMP DP  RH WIND       PRES   REMARKS
MCCALL         CLOUDY    27  22  81 CALM      30.19S
HAILEY         PTSUNNY   25  18  74 CALM      30.20R
STANLEY          N/A     31  21  66 VRB6      30.17R WCI  25
SALMON         CLOUDY    30  25  80 CALM      30.14F
CHALLIS        MOSUNNY   28  20  71 SE3       30.14F
$$

IDZ002-004-006-007-026-031900-
NORTHERN IDAHO


CITY           SKY/WX    TMP DP  RH WIND       PRES   REMARKS
LEWISTON       MOSUNNY   42  34  73 N3        30.21R
LOWELL           N/A     34  32  92 CALM      30.26R
COEUR D`ALENE  PTSUNNY   38  34  85 S5        30.15R WCI  34
MULLAN PASS    LGT SNOW  25  23  92 W8        30.01S VSB 1   WCI  16
$$




USA.gov is the U.S. government's official web portal to all federal, state and local government web resources and services.